Regional Weather Roundup
Issued by NWS

Home | Current Version | Previous Version | Graphics & Text | Print | Product List | Glossary On
Versions: 1 2 3 4 5 6 7 8 9 10 11 12 13 14 15 16 17 18 19 20 21 22 23 24 25 26 27 28 29 30 31 32 33 34 35 36 37 38 39 40 41 42 43 44 45 46 47 48 49 50
000
ASUS43 KMPX 292201
RWRMN
WEATHER ROUNDUP FOR MINNESOTA
NATIONAL WEATHER SERVICE TWIN CITIES/CHANHASSEN MN
500 PM CDT SAT AUG 29 2015


NOTE: "FAIR" INDICATES FEW OR NO CLOUDS BELOW 12,000 FEET WITH NO
SIGNIFICANT WEATHER AND/OR OBSTRUCTIONS TO VISIBILITY. N/A MEANS
CURRENT SKY AND/OR WEATHER CONDITIONS ARE NOT AVAILABLE.

MNZ060>063-068>070-292300-
   Twin Cities Metro

CITY           SKY/WX    TMP DP  RH WIND       PRES   REMARKS
TWIN CITIES    PTSUNNY   74  61  63 S5        30.03S
ST PAUL        PTSUNNY   73  63  70 SE5       30.03F
CRYSTAL        PTSUNNY   75  61  61 CALM      30.01F
BLAINE         PTSUNNY   75  63  64 S5        30.02F
LAKEVILLE      MOSUNNY   73  64  73 CALM      30.04R
EDEN PRAIRIE   PTSUNNY   73  62  68 S5        30.02S
SOUTH ST PAUL  PTSUNNY   73  62  69 CALM      30.03S
LAKE ELMO      FAIR      72  63  73 CALM      30.04F
$$
MNZ001>005-007-008-013>017-022>024-027-028-292300-
   Northwest Minnesota

CITY           SKY/WX    TMP DP  RH WIND       PRES   REMARKS
BEMIDJI        PTSUNNY   75  67  75 S7        29.94F
HALLOCK        CLOUDY    79  70  73 S13G18    29.84F
ROSEAU         PTSUNNY   75  70  83 SE8       29.88F
WARROAD        CLOUDY    72  70  94 SE7       29.89F
THIEF RVR FALL MOSUNNY  N/A N/A N/A S17       29.87F
CROOKSTON      MOSUNNY   81  68  65 S16       29.87F
FOSSTON        PTSUNNY   79  64  61 S14       29.92F
DETROIT LAKES  PTSUNNY   77  64  65 S12       29.96S
MOORHEAD       SUNNY     81  66  61 S12       29.90F
PARK RAPIDS    PTSUNNY   77  64  64 S12       29.97F
MAHNOMEN       FAIR      77  67  70 S8        29.92F
$$
MNZ006-009>011-018-025>026-292300-
   North Central Minnesota

CITY           SKY/WX    TMP DP  RH WIND       PRES   REMARKS
BAUDETTE       CLOUDY    72  66  81 S8        29.91F
FLAG ISLAND    CLOUDY    70  64  83 S13       29.88F
INTL FALLS     CLOUDY    71  65  81 VRB3      29.94F
WASKISH        CLOUDY    73  68  83 CALM      29.93F
BIG FORK       PTSUNNY   75  66  73 S6        29.96F
LONGVILLE      PTSUNNY   73  64  73 S9        29.98F
GRAND RAPIDS     N/A     73  63  68 S12       29.98F
CRANE LAKE     CLOUDY    70  66  88 SE2       29.97F
COOK           CLOUDY    72  63  73 S6        29.98F
WALKER         FAIR      74  66  75 S6        29.96F
$$
MNZ012-019>021-037-292300-
   Northeast Minnesota

CITY           SKY/WX    TMP DP  RH WIND       PRES   REMARKS
DULUTH         PTSUNNY   72  61  68 SW8       30.01S
ELY            CLOUDY    72  63  73 W7        29.99S
HIBBING        CLOUDY    74  63  68 S6        29.98F
EVELETH        CLOUDY    70  63  78 S6        30.00F
DULUTH HARBOR  PTSUNNY   75  64  69 SW5       29.98F
TWO HARBORS    MOSUNNY   75  66  73 SW8       29.97F
SILVER BAY     SUNNY     73  63  68 S7        29.97R
GRAND MARAIS     N/A     55  51  86 W7        29.97S
G MARAIS ARPRT PTSUNNY   73  61  64 S6        30.01S
$$
MNZ029>031-032-039>041-046>048-054>057-064-292300-
   West Central Minnesota

CITY           SKY/WX    TMP DP  RH WIND       PRES   REMARKS
FERGUS FALLS   PTSUNNY   75  64  69 S13       29.94S
WHEATON        PTSUNNY   75  66  73 SE12      29.95S
MORRIS         PTSUNNY   75  66  73 S10       29.96F
ALEXANDRIA     PTSUNNY   73  62  68 S12       30.00F
ELBOW LAKE     FAIR      73  64  74 S12       29.96F
WADENA         PTSUNNY   72  63  73 S5        29.98S
GLENWOOD       PTSUNNY   73  63  68 S10       30.01S
APPLETON       MOSUNNY   79  64  61 S7        29.97S
BENSON         PTSUNNY   75  61  60 S8        29.99S
ORTONVILLE     MOSUNNY   79  64  61 SE7       29.96S
MADISON        MOSUNNY   77  64  65 S8        29.97F
WILLMAR        FAIR      73  64  73 S8        30.02F
$$
MNZ033>034-036-042>043-049>051-058-059-292300-
   Central Minnesota

CITY           SKY/WX    TMP DP  RH WIND       PRES   REMARKS
ST CLOUD       MOSUNNY   73  63  70 S10       30.01F
SAUK CENTRE    FAIR      73  63  69 S8        30.00S
PAYNESVILLE    MOSUNNY   73  62  69 E8        30.02F
AITKIN         MOSUNNY   73  63  68 S7        29.99F
PINE RIVER     PTSUNNY   72  64  78 S6        30.02S
BRAINERD       PTSUNNY   73  62  68 S8        30.00S
STAPLES        PTSUNNY   72  61  68 S7        29.99S
LONG PRAIRIE   FAIR      72  61  68 SE8       30.01S
LITTLE FALLS   PTSUNNY   73  59  60 S8        30.00F
LITCHFIELD     MOSUNNY   73  66  78 SE6       30.03S
BUFFALO        MOSUNNY   70  61  73 S5        30.04S
MAPLE LAKE     MOSUNNY   72  65  78 S3        30.04S
$$
MNZ037-044-045-052-053-292300-
   East Central Minnesota

CITY           SKY/WX    TMP DP  RH WIND       PRES   REMARKS
PRINCETON      MOSUNNY   75  63  64 S6        30.02S
MORA           MOSUNNY   73  61  64 SW8       30.03F
CAMBRIDGE      MOSUNNY   77  61  57 S6        30.01S
RUSH CITY      PTSUNNY   74  62  67 S5        30.02F
MOOSE LAKE     PTSUNNY   73  61  64 S8        29.99S
HINCKLEY       FAIR      73  63  68 S7        30.02S
CLOQUET        PTSUNNY   73  61  64 SW6       30.01S
MCGREGOR       MOSUNNY   73  63  68 SW8       30.00F
$$
MNZ071>073-080-081-089-090-097-098-292300-
   Southwest Minnesota

CITY           SKY/WX    TMP DP  RH WIND       PRES   REMARKS
MONTEVIDEO     PTSUNNY   79  64  61 S8        30.01S
GRANITE FALLS  PTSUNNY   76  65  67 SE7       30.01F
CANBY          PTSUNNY   79  64  60 S7        29.99F
MARSHALL       PTSUNNY   77  63  61 S10       30.02S
REDWOOD FALLS  MOSUNNY   75  65  70 SE7       30.01F
OLIVIA         MOSUNNY   72  63  73 SE8       30.01S
PIPESTONE      MOSUNNY   73  63  68 S8        30.03S
WINDOM         PTSUNNY   73  64  73 CALM      30.04S
WORTHINGTON    PTSUNNY   72  64  78 S6        30.04S
JACKSON        PTSUNNY   73  64  73 SW5       30.05S
TRACY          MOSUNNY   76  66  71 S6        30.02S
SLAYTON        MOSUNNY   72  64  76 S3        30.04S
$$
MNZ065>067-074>077-082>085-091>093-292300-
   South Central Minnesota

CITY           SKY/WX    TMP DP  RH WIND       PRES   REMARKS
MANKATO        PTSUNNY   68  61  77 S5        30.04S
NEW ULM        PTSUNNY   72  64  78 S6        30.03S
ST JAMES       PTSUNNY   73  66  78 S5        30.04F
FAIRMONT       PTSUNNY   70  59  68 S7        30.05S
GLENCOE        PTSUNNY   72  65  78 S3        30.03S
FARIBAULT      MOSUNNY   73  64  73 CALM      30.04F
OWATONNA       MOSUNNY   73  63  68 CALM      30.04S
WASECA         MOSUNNY   72  64  78 W5        30.06S
ALBERT LEA     SUNNY     73  64  73 CALM      30.04F
$$
MNZ078>079-086>088-094>096-292300-
   Southeast Minnesota

CITY           SKY/WX    TMP DP  RH WIND       PRES   REMARKS
ROCHESTER      MOSUNNY   74  64  71 CALM      30.05S
RED WING       SUNNY     73  61  64 SE6       30.02F
STANTON        MOSUNNY   75  64  67 CALM      30.02F
DODGE CENTER   SUNNY     73  63  68 CALM      30.05S
WINONA         CLOUDY    72  63  73 CALM      30.04F
AUSTIN         SUNNY     75  64  69 CALM      30.04S
PRESTON        MOSUNNY   71  61  70 CALM      30.06S
$$
ABBREVIATIONS USED IN REMARKS
   TC - TEMPERATURES IN CELSIUS
  WCI - WIND CHILL INDEX
   HX - HEAT INDEX
  VSB - VISIBILITY
$$


USA.gov is the U.S. government's official web portal to all federal, state and local government web resources and services.